Regional Weather Roundup
Issued by NWS

Home | Current Version | Previous Version | Text Only | Print | Product List | Glossary On
Versions: 1 2 3 4 5 6 7 8 9 10 11 12 13 14 15 16 17 18 19 20 21 22 23 24 25 26 27 28 29 30 31 32 33 34 35 36 37 38 39 40 41 42 43 44 45 46 47 48 49 50
000
ASUS43 KMPX 131510
RWRMN
WEATHER ROUNDUP FOR MINNESOTA
NATIONAL WEATHER SERVICE TWIN CITIES/CHANHASSEN MN
900 AM CST SAT FEB 13 2016


NOTE: "FAIR" INDICATES FEW OR NO CLOUDS BELOW 12,000 FEET WITH NO
SIGNIFICANT WEATHER AND/OR OBSTRUCTIONS TO VISIBILITY. N/A MEANS
CURRENT SKY AND/OR WEATHER CONDITIONS ARE NOT AVAILABLE.

MNZ060>063-068>070-131600-
   Twin Cities Metro

CITY           SKY/WX    TMP DP  RH WIND       PRES   REMARKS
TWIN CITIES    CLOUDY    -2 -11  65 CALM      30.64S
ST PAUL        CLOUDY    -2 -12  62 CALM      30.67S
CRYSTAL        CLOUDY    -4 -12  68 CALM      30.64R
BLAINE         SUNNY     -2 -11  65 W3        30.63R
LAKEVILLE      CLOUDY    -8 -13  77 CALM      30.63S
EDEN PRAIRIE   CLOUDY    -4 -12  68 CALM      30.64R
SOUTH ST PAUL  CLOUDY    -2 -13  60 CALM      30.65F
LAKE ELMO      FAIR      -4 -11  71 CALM      30.64S
$$
MNZ001>005-007-008-013>017-022>024-027-028-131600-
   Northwest Minnesota

CITY           SKY/WX    TMP DP  RH WIND       PRES   REMARKS
BEMIDJI        MOSUNNY  -20 -26  74 CALM      30.52S
HALLOCK        CLOUDY   -11 -17  77 SE12      30.53F WCI -31
ROSEAU         CLOUDY   -18 -26  69 SE6       30.53F WCI -33
WARROAD        CLOUDY   -24 -31  69 CALM      30.53F
THIEF RVR FALL CLOUDY   -13 -18  77 SE7       30.54F WCI -29
CROOKSTON      CLOUDY    -9 -17  70 SE12      30.56F WCI -29
FOSSTON          N/A    -15 -20  76 CALM      30.52S
DETROIT LAKES  CLOUDY    -9 -15  77 SE7       30.51F WCI -24
MOORHEAD       CLOUDY    -6 -11  77 SE8       30.54F WCI -21
PARK RAPIDS    FLURRIES -21 -25  81 SW3       30.51F
MAHNOMEN       FAIR     -16 -21  78 SE3       30.52F
$$
MNZ006-009>011-018-025>026-131600-
   North Central Minnesota

CITY           SKY/WX    TMP DP  RH WIND       PRES   REMARKS
BAUDETTE       CLOUDY   -22 -28  74 CALM      30.53R
FLAG ISLAND    CLOUDY   -24 -29  76 SE5       30.53S WCI -38
INTL FALLS     CLOUDY   -21 -25  81 CALM      30.55R
WASKISH        CLOUDY   -17 -20  83 CALM      30.53F
LONGVILLE      MOSUNNY  -15 -20  76 CALM      30.54F
GRAND RAPIDS   CLOUDY   -17 -22  76 N3        30.53S
CRANE LAKE     CLOUDY   -20 -26  76 CALM      30.58S
ORR            CLOUDY   -18 -26  69 CALM      30.50S
COOK           CLOUDY   -18 -24  76 CALM      30.53S
WALKER         FAIR     -17 -22  78 CALM      30.53F
$$
MNZ012-019>021-037-131600-
   Northeast Minnesota

CITY           SKY/WX    TMP DP  RH WIND       PRES   REMARKS
DULUTH         SUNNY    -13 -21  67 NW6       30.50F WCI -27
ELY            CLOUDY   -20 -26  76 CALM      30.51F
HIBBING        CLOUDY   -18 -23  77 NW3       30.52F
EVELETH        CLOUDY   -13 -18  77 CALM      30.51F
DULUTH HARBOR  CLOUDY    -9 -18  64 W5        30.64F WCI -21
TWO HARBORS    CLOUDY    -8 -18  59 NW3       30.52F
SILVER BAY     SUNNY     -9 -20  59 S3        30.52R
GRAND MARAIS     N/A     -5 -16  59 S5        30.56R WCI -16
G MARAIS ARPRT SUNNY    -15 -24  64 NW12G22   30.38S WCI -36
$$
MNZ029>031-032-039>041-046>048-054>057-064-131600-
   West Central Minnesota

CITY           SKY/WX    TMP DP  RH WIND       PRES   REMARKS
FERGUS FALLS   CLOUDY    -6 -11  77 SE9       30.58F WCI -22
WHEATON        CLOUDY     0  -6  78 SE13      30.56F WCI -18
MORRIS         CLOUDY    -2  -9  71 SE12      30.55S WCI -20
ALEXANDRIA     CLOUDY    -8 -15  71 SE8       30.53F WCI -24
ELBOW LAKE     FAIR      -5 -12  72 E12       30.54F WCI -23
WADENA         CLOUDY   -11 -17  77 SE3       30.54S
GLENWOOD       CLOUDY    -8 -15  71 E10       30.55F WCI -26
APPLETON       CLOUDY    -2  -9  71 SE7       30.58F WCI -16
BENSON         CLOUDY    -2 -11  65 CALM      30.57S
ORTONVILLE     CLOUDY    -2  -9  71 SE8       30.55F WCI -17
MADISON        CLOUDY     0  -8  71 S9        30.57F WCI -16
WILLMAR        FAIR      -2  -9  71 SE8       30.58F WCI -17
$$
MNZ033>034-036-042>043-049>051-058-059-131600-
   Central Minnesota

CITY           SKY/WX    TMP DP  RH WIND       PRES   REMARKS
ST CLOUD       CLOUDY    -7 -13  75 CALM      30.61S
SAUK CENTRE    FAIR     -10 -15  79 CALM      30.57F
PAYNESVILLE    CLOUDY    -6 -13  71 CALM      30.59F
AITKIN         CLOUDY    -9 -18  64 CALM      30.55S
PINE RIVER     CLOUDY   -18 -26  69 CALM      30.56F
BRAINERD       CLOUDY   -15 -19  82 CALM      30.57S
STAPLES        CLOUDY   -13 -18  77 CALM      30.55F
LONG PRAIRIE   FAIR     -13 -17  84 S3        30.56F
LITTLE FALLS   CLOUDY   -13 -18  77 CALM      30.60F
LITCHFIELD     CLOUDY    -6 -13  71 CALM      30.60F
BUFFALO        CLOUDY    -6 -14  68 CALM      30.63F
MAPLE LAKE     CLOUDY    -6 -11  77 CALM      30.62S
$$
MNZ037-044-045-052-053-131600-
   East Central Minnesota

CITY           SKY/WX    TMP DP  RH WIND       PRES   REMARKS
PRINCETON      CLOUDY    -6 -11  77 CALM      30.61S
MORA           CLOUDY    -8 -15  71 CALM      30.62S
CAMBRIDGE      CLOUDY    -6 -15  65 CALM      30.60S
MOOSE LAKE     MOSUNNY  -11 -20  64 CALM      30.57S
HINCKLEY       FAIR      -8 -15  71 CALM      30.61S
CLOQUET        CLOUDY   -13 -22  64 CALM      30.53F
MCGREGOR       MOSUNNY  -11 -17  77 CALM      30.57R
$$
MNZ071>073-080-081-089-090-097-098-131600-
   Southwest Minnesota

CITY           SKY/WX    TMP DP  RH WIND       PRES   REMARKS
MONTEVIDEO     CLOUDY    -2  -8  78 S7        30.60S WCI -16
GRANITE FALLS  CLOUDY     0  -6  74 SE7       30.61S WCI -13
CANBY          CLOUDY     2  -4  74 SE9       30.57S WCI -12
MARSHALL       CLOUDY     0  -7  72 S10       30.56F WCI -16
REDWOOD FALLS  CLOUDY    -2  -9  72 SE8       30.60F WCI -17
OLIVIA         CLOUDY     0  -8  71 S8        30.60S WCI -15
PIPESTONE      CLOUDY     1 -11  55 S9        30.49F WCI -14
WINDOM         CLOUDY    -2  -8  78 SE7       30.55F WCI -16
WORTHINGTON    CLOUDY    -2 -11  65 SE8       30.55R WCI -17
JACKSON        CLOUDY     0  -8  71 SE5       30.56F WCI -10
TRACY          CLOUDY     0  -6  76 S7        30.56F WCI -13
SLAYTON        CLOUDY    -1  -6  80 SE9       30.53F WCI -17
$$
MNZ065>067-074>077-082>085-091>093-131600-
   South Central Minnesota

CITY           SKY/WX    TMP DP  RH WIND       PRES   REMARKS
MANKATO        CLOUDY     0  -9  65 CALM      30.62F
NEW ULM        CLOUDY    -4 -11  71 SE3       30.62S
ST JAMES       CLOUDY    -2  -8  78 SE3       30.62F
FAIRMONT       CLOUDY    -2  -9  71 CALM      30.59R
GLENCOE        CLOUDY    -3 -10  71 CALM      30.62S
FARIBAULT      MOSUNNY   -6 -13  71 S1        30.61S
OWATONNA       CLOUDY    -6 -13  71 CALM      30.60F
WASECA         CLOUDY    -2  -9  71 CALM      30.62F
ALBERT LEA     CLOUDY    -2 -11  65 CALM      30.59S
$$
MNZ078>079-086>088-094>096-131600-
   Southeast Minnesota

CITY           SKY/WX    TMP DP  RH WIND       PRES   REMARKS
ROCHESTER      CLOUDY    -7 -14  71 NW6       30.59R WCI -20
RED WING       MOSUNNY   -4 -15  59 W3        30.64S
STANTON        MOSUNNY  -10 -16  73 CALM      30.62S
DODGE CENTER   CLOUDY     1  -8  66 CALM      30.57S
WINONA         MOSUNNY    1 -13  51 CALM      30.66F
AUSTIN         CLOUDY    -6 -11  77 CALM      30.60R
PRESTON        MOSUNNY   -7 -16  66 N3        30.59R
$$
ABBREVIATIONS USED IN REMARKS
   TC - TEMPERATURES IN CELSIUS
  WCI - WIND CHILL INDEX
   HX - HEAT INDEX
  VSB - VISIBILITY
$$



USA.gov is the U.S. government's official web portal to all federal, state and local government web resources and services.